Regional Weather Roundup
Issued by NWS

Home | Current Version | Previous Version | Text Only | Print | Product List | Glossary Off
Versions: 1 2 3 4 5 6 7 8 9 10 11 12 13 14 15 16 17 18 19 20 21 22 23 24 25 26 27 28

000
ASUS45 KSLC 290710
RWRUT

UTAH REGIONAL WEATHER ROUNDUP
NATIONAL WEATHER SERVICE SALT LAKE CITY UT
100 AM MDT SUN MAY 29 2016

UTZ001>011-023>025-290800-

NORTHERN UTAH

CITY           SKY/WX    TMP DP  RH WIND       PRES   REMARKS
BRIGHAM CITY     N/A     53  43  67 N5        30.08S
HILL AFB       PTCLDY    56  35  44 E12       30.09S
LOGAN          CLEAR     46  42  86 CALM      30.10R
OGDEN          PTCLDY    56  37  49 S8        30.07S
PROVO AIRPORT  PTCLDY    54  45  71 N6        30.09S
SALT LAKE CITY MOCLDY    63  39  41 SE7       30.06S
VERNAL         CLOUDY    50  40  68 W5G33     30.13S
WENDOVER       CLOUDY    64  43  45 S5        30.08R
HEBER CITY     PTCLDY    45  37  76 SE6       30.14S
WEST JORDAN    CLEAR     55  41  58 CALM      30.09S

$$

UTZ012>022-026-027-290800-

SOUTHERN/CENTRAL UTAH

CITY           SKY/WX    TMP DP  RH WIND       PRES   REMARKS
BLANDING       PTCLDY    57  29  34 N10       30.18S
BRYCE CANYON   MOCLDY    45  34  65 NW6       30.22S
CEDAR CITY     MOCLDY    55  34  45 SW3       30.08S
DELTA          PTCLDY    55  39  54 NE6       30.07S
HANKSVILLE     PTCLDY    59  36  41 CALM      30.08S
MILFORD        MOCLDY    54  38  54 E3        30.06R
MOAB/CYNLANDS  PTCLDY    60  32  34 CALM      30.05S
PRICE          PTCLDY    54  37  52 W3        30.14S
ST GEORGE      MOSUNNY   77  36  22 NW6       29.94R
KANAB          MOCLDY    63  36  36 NE5       30.07S

$$

REGIONAL REPORTS     COLORADO/ARIZONA

CITY           SKY/WX    TMP DP  RH WIND       PRES   REMARKS
CRAIG, CO      PTCLDY    42  36  79 CALM      30.20S
GRAND JUNCTION CLEAR     57  36  45 S6        30.09S
RIFLE          CLOUDY    46  35  65 S6        30.17F
MONTROSE       CLOUDY    53  33  46 SE8       30.17F
CORTEZ         CLEAR     42  32  67 CALM      30.14S
PAGE, AZ       PTCLDY    68  30  24 SW3       29.99R
GRAND CANYON   CLEAR     41  26  55 CALM      30.16R
KINGMAN        CLEAR     69  28  21 MISG      29.96S
FLAGSTAFF      CLEAR     42  20  41 CALM      30.18F

$$

REGIONAL REPORTS    NEVADA/IDAHO/WYOMING

CITY           SKY/WX    TMP DP  RH WIND       PRES   REMARKS
LAS VEGAS, NV  CLEAR     78  26  14 S3        29.82R
ELY            PTCLDY    48  41  76 W9        30.16S
ELKO           MOCLDY    57  42  57 CALM      30.09R
POCATELLO, ID  CLEAR     42  35  76 E3        30.11R
BURLEY         CLEAR     46  38  73 CALM      30.07S
EVANSTON, WY   CLOUDY    49  27  42 E3        30.20S
ROCK SPRINGS   CLEAR     47  36  65 W12       30.19S
KEMMERER         N/A     39  32  75 N5        30.21S

$$




USA.gov is the U.S. government's official web portal to all federal, state and local government web resources and services.